Location: Fort Frances
(48.6170°N, 93.4170°W)
Time: 22:02:41
(UTC-05:00)

ISS - All Passes

Search period start: 20 October 2017 00:00
Search period end: 30 October 2017 00:00
Orbit: 401 x 408 km, 51.6° (Epoch: 21 October)

Date Brightness Start Highest point End Pass type
(mag) Time Alt. Az. Time Alt. Az. Time Alt. Az.
20 Oct - 11:33:44 10° SW 11:36:54 48° SSE 11:40:04 10° ENE daylight
20 Oct - 13:10:10 10° W 13:13:23 55° N 13:16:37 10° ENE daylight
20 Oct - 14:46:56 10° WNW 14:50:09 53° N 14:53:23 10° E daylight
20 Oct - 16:23:28 10° WNW 16:26:40 53° SSW 16:29:52 10° SE daylight
20 Oct - 18:01:55 10° WSW 18:02:32 10° SW 18:03:10 10° SW daylight
21 Oct - 10:41:48 10° SSW 10:44:41 30° SE 10:47:36 10° E daylight
21 Oct - 12:17:45 10° W 12:21:00 69° NNW 12:24:16 10° ENE daylight
21 Oct - 13:54:33 10° WNW 13:57:44 47° N 14:00:56 10° E daylight
21 Oct - 15:31:06 10° WNW 15:34:22 82° SSW 15:37:39 10° ESE daylight
21 Oct - 17:08:11 10° W 17:10:28 18° SW 17:12:44 10° S daylight
22 Oct - 09:50:09 10° S 09:52:31 19° SE 09:54:54 10° E daylight
22 Oct - 11:25:23 10° WSW 11:28:38 86° SSE 11:31:55 10° ENE daylight
22 Oct - 13:02:07 10° WNW 13:05:18 47° N 13:08:29 10° ENE daylight
22 Oct - 14:38:45 10° WNW 14:42:02 72° NNE 14:45:18 10° ESE daylight
22 Oct - 16:15:27 10° W 16:18:19 28° SW 16:21:11 10° SSE daylight
23 Oct - 08:59:22 10° SSE 09:00:25 11° SE 09:01:29 10° ESE daylight
23 Oct - 10:33:07 10° SW 10:36:19 57° SSE 10:39:32 10° ENE daylight
23 Oct - 12:09:39 10° W 12:12:51 52° N 12:16:04 10° ENE daylight
23 Oct - 13:46:23 10° WNW 13:49:37 56° NNE 13:52:51 10° E daylight
23 Oct - 15:22:56 10° WNW 15:26:05 45° SSW 15:29:13 10° SE daylight
24 Oct - 09:41:02 10° SW 09:44:02 35° SSE 09:47:04 10° E daylight
24 Oct - 11:17:11 10° W 11:20:25 63° NNW 11:23:40 10° ENE daylight
24 Oct - 12:53:59 10° WNW 12:57:10 49° N 13:00:22 10° E daylight
24 Oct - 14:30:31 10° WNW 14:33:46 71° SSW 14:37:02 10° ESE daylight
24 Oct - 16:07:52 10° W 16:09:47 15° SW 16:11:42 10° S daylight
25 Oct - 08:49:14 10° SSW 08:51:50 22° SE 08:54:26 10° E daylight
25 Oct - 10:24:45 10° WSW 10:28:01 84° NNW 10:31:17 10° ENE daylight
25 Oct - 12:01:32 10° WNW 12:04:42 47° N 12:07:52 10° ENE daylight
25 Oct - 13:38:07 10° WNW 13:41:24 80° NNE 13:44:40 10° ESE daylight
25 Oct - 15:14:55 10° W 15:17:37 24° SW 15:20:19 10° SSE daylight
26 Oct - 07:57:59 10° SSE 07:59:40 13° SE 08:01:21 10° ESE daylight
26 Oct - 09:32:24 10° WSW 09:35:38 66° SSE 09:38:52 10° ENE daylight
26 Oct - 11:09:02 10° W 11:12:13 49° N 11:15:24 10° ENE daylight
26 Oct - 12:45:44 10° WNW 12:48:58 60° NNE 12:52:12 10° E daylight
26 Oct - 14:22:18 10° WNW 14:25:22 38° SSW 14:28:26 10° SE daylight
27 Oct - 08:40:13 10° SW 08:43:18 42° SSE 08:46:25 10° ENE daylight
27 Oct - 10:16:31 10° W 10:19:44 58° NNW 10:22:58 10° ENE daylight
27 Oct - 11:53:17 10° WNW 11:56:30 50° N 11:59:42 10° E daylight
27 Oct - 13:29:49 10° WNW 13:33:03 61° SSW 13:36:16 10° SE daylight
27 Oct - 15:07:33 10° WSW 15:08:59 12° SW 15:10:24 10° SSW daylight
28 Oct - 07:48:15 10° SSW 07:51:01 26° SE 07:53:48 10° E daylight
28 Oct - 09:24:01 10° WSW 09:27:16 76° NNW 09:30:33 10° ENE daylight
28 Oct - 11:00:49 10° WNW 11:03:59 47° N 11:07:09 10° ENE daylight
28 Oct - 12:37:23 10° WNW 12:40:39 89° NNE 12:43:55 10° ESE daylight
28 Oct - 14:14:18 10° W 14:16:48 20° SW 14:19:18 10° S daylight
29 Oct - 06:56:43 10° S 06:58:48 16° SE 07:00:53 10° E visible
29 Oct - 08:31:35 10° WSW 08:34:51 77° SSE 08:38:06 10° ENE daylight
29 Oct - 10:08:16 10° W 10:11:28 48° N 10:14:39 10° ENE daylight
29 Oct - 11:44:57 10° WNW 11:48:12 66° NNE 11:51:27 10° E daylight
29 Oct - 13:21:34 10° W 13:24:32 33° SW 13:27:30 10° SSE daylight
